Dewpoint
54 56 57 58 58 58 56 55 55 56 55 55 55 55 57 59 61 57 53 53 52 58 56 49 46 45 44 43 45 46 38 31 29 25 27 29 29 32 32 32 32 32 32 42 45
52 53 55 57 58 58 57 56 55 55 55 54 55 55 56 59 55 53 55 57 58 58 52 46 43 43 41 41 43 43 35 30 26 27 28 30 32 31 31 32 31 34 36 41 46
50 50 53 55 57 58 58 56 55 55 55 54 54 56 56 57 52 50 59 59 60 59 51 46 43 42 40 40 40 40 36 31 30 37 37 35 32 35 34 34 30 30 34 39 43
49 50 49 52 55 57 58 57 56 55 54 54 54 55 55 53 42 52 56 58 61 58 52 47 44 40 38 38 39 37 37 36 36 39 41 40 38 36 36 36 34 35 40 41 41
47 49 49 49 52 54 58 59 56 55 54 53 54 55 52 44 44 52 52 51 54 57 53 47 43 41 38 37 36 37 37 35 37 39 39 40 38 37 38 39 38 39 39 42 42
46 48 50 50 50 52 56 57 56 55 54 53 53 54 46 39 44 46 45 47 48 52 53 50 46 43 40 37 37 37 37 36 37 37 38 37 36 35 34 35 35 36 38 38 41
46 46 49 50 50 51 53 57 58 55 54 53 54 49 44 37 39 43 44 46 50 50 49 50 48 44 43 40 40 39 37 37 36 36 35 36 34 34 35 35 34 34 33 34 35
44 46 48 49 50 51 54 57 58 56 54 53 54 45 39 43 42 42 43 46 50 51 51 51 49 46 44 41 38 36 35 32 31 34 34 34 30 28 31 32 33 33 32 33 33
45 46 48 49 49 50 52 54 57 56 54 53 47 43 38 43 38 38 41 43 45 47 50 51 50 45 43 38 34 34 29 29 29 33 33 34 32 31 36 35 32 33 33 34 34
45 46 48 48 49 50 50 53 56 55 52 49 44 41 40 38 39 39 41 43 42 42 44 44 41 38 38 36 29 28 28 28 27 29 32 31 30 30 31 32 34 34 34 35 34
46 47 47 46 48 48 49 51 49 47 48 41 40 36 39 40 41 39 40 42 41 40 35 37 34 31 31 31 30 28 28 27 27 29 30 29 27 27 28 29 30 31 32 31 32
44 47 47 46 47 47 46 44 45 46 40 41 40 40 40 40 38 38 39 37 38 36 35 36 34 32 31 31 30 31 29 28 28 28 28 27 25 25 25 26 26 26 27 28 29
44 47 48 47 48 47 43 42 49 50 41 40 40 39 40 41 36 38 38 35 34 33 33 33 30 31 31 31 31 30 28 27 26 27 27 25 24 22 23 23 24 25 25 25 26
45 48 49 49 46 44 41 43 50 49 36 35 38 39 41 40 37 39 38 35 34 31 32 32 31 29 30 30 29 27 27 27 26 27 24 27 21 22 21 21 22 22 22 23 25
44 47 47 48 46 41 43 46 50 47 27 36 36 39 40 35 37 38 38 37 32 30 32 31 31 31 30 29 28 27 30 28 28 27 27 26 25 22 18 19 21 22 23 24 25
45 46 48 48 47 44 48 50 46 31 27 33 39 37 36 34 36 38 38 38 35 31 32 31 32 32 31 30 30 31 29 29 29 29 26 23 23 19 15 12 14 18 21 22 21
46 48 48 47 41 47 50 44 30 27 31 33 33 36 34 32 34 37 37 35 33 32 32 32 30 31 32 30 32 31 30 27 26 25 21 17 17 19 18 18 19 20 20 22 21
47 48 47 45 45 48 44 36 28 30 29 30 34 34 32 32 33 33 34 33 32 30 30 28 29 30 33 32 29 29 30 26 18 12 15 18 18 16 17 17 19 20 21 21 23
48 46 47 46 48 45 39 30 33 28 30 31 33 33 32 30 31 33 32 31 31 31 32 29 28 30 33 32 30 30 30 29 26 24 22 17 15 18 18 18 18 18 20 22 22
46 44 44 46 48 45 36 33 29 31 31 32 28 28 27 30 30 30 31 30 30 31 31 31 29 28 31 32 32 30 30 27 31 21 17 14 14 14 16 16 17 18 19 22 26
45 40 45 48 48 40 33 35 32 32 31 30 28 27 26 27 28 28 29 30 31 30 31 32 29 28 30 31 28 30 30 30 26 25 21 16 16 17 19 21 20 17 17 23 26
42 35 47 46 37 36 35 37 34 32 35 33 30 28 28 28 28 28 28 28 31 31 30 31 31 28 25 26 27 27 28 27 27 22 25 27 23 24 24 23 23 24 25 24 26
37 39 47 47 34 34 37 37 34 34 34 33 33 31 30 29 28 29 29 33 32 32 30 31 31 26 26 28 27 29 27 27 29 32 29 26 23 24 24 25 28 28 27 24 27
39 35 40 42 41 36 37 35 34 38 36 34 34 32 31 30 31 29 30 33 33 32 37 35 30 28 23 29 30 34 29 30 34 30 27 27 26 27 27 29 33 30 30 30 30
43 38 38 35 36 34 35 34 33 32 36 35 33 32 31 30 31 31 31 33 35 36 33 32 31 29 28 28 29 32 32 33 34 34 30 30 30 32 32 31 34 36 34 32 32
39 40 41 35 34 33 35 34 35 34 32 32 32 33 32 30 30 30 32 32 31 34 33 35 31 35 31 30 31 34 32 34 37 37 36 35 34 35 32 32 32 33 32 31 37
43 44 43 37 33 33 32 32 32 34 35 35 33 33 32 33 34 34 36 35 33 34 33 34 34 32 28 30 30 32 37 38 37 37 37 32 32 32 32 33 37 39 40 40 40
Lifted_Index
3 3 2 1 1 1 2 3 4 4 4 4 5 5 4 4 3 3 3 3 4 4 5 5 6 6 6 5 5 4 4 5 5 5 4 5 5 4 4 4 4 3 3 2 1
5 4 3 2 1 1 2 3 3 4 4 4 5 5 4 3 3 3 3 3 3 4 4 5 6 6 5 5 5 4 5 5 5 5 4 5 5 5 4 4 4 3 3 2 2
7 6 5 4 2 2 2 2 3 4 4 4 4 4 4 3 3 3 3 2 2 3 4 5 6 6 5 5 5 5 5 5 5 4 4 5 5 5 5 4 4 4 3 2 2
8 7 7 5 4 3 2 2 3 4 4 4 4 4 4 3 3 3 3 3 2 3 4 5 5 5 5 5 5 6 6 5 5 4 4 4 5 5 5 4 4 4 3 2 2
8 8 7 7 5 4 2 2 2 3 4 4 4 4 4 4 3 3 4 4 3 3 3 4 4 5 5 5 6 6 6 6 5 5 5 5 5 5 5 5 4 4 3 3 2
8 8 8 7 7 5 3 2 2 3 4 4 4 4 4 5 5 5 5 4 3 3 3 3 4 4 5 5 6 6 6 6 6 6 6 6 6 6 6 5 5 5 4 4 3
9 9 8 8 7 6 4 3 2 3 4 4 4 4 5 5 6 6 5 4 3 3 3 3 4 4 5 5 6 6 6 6 6 6 6 6 6 6 6 6 6 6 5 5 5
10 9 9 8 8 7 5 3 2 2 3 4 4 5 5 6 6 6 5 4 3 2 2 3 3 4 5 5 5 5 6 6 6 6 7 7 6 6 6 6 6 6 6 6 6
9 9 8 8 8 7 6 4 2 2 3 4 4 5 5 6 6 6 6 4 3 3 3 3 3 4 4 5 5 5 5 5 6 6 7 7 6 6 6 6 6 6 6 6 6
8 7 7 7 7 7 7 4 2 2 3 4 4 5 5 5 6 6 6 5 4 4 4 4 4 4 4 4 4 5 5 5 6 6 7 7 7 7 7 7 6 6 6 6 6
5 5 4 5 5 6 6 5 3 3 3 4 4 4 5 5 6 6 6 5 4 4 4 5 5 5 5 5 5 5 5 5 6 6 7 7 7 7 7 7 7 7 7 7 6
3 2 2 3 4 5 6 6 5 4 3 3 3 4 4 5 5 6 6 5 5 4 5 5 5 5 5 6 6 6 6 5 6 6 7 6 5 6 7 7 7 7 7 7 7
1 1 1 2 3 4 5 6 5 4 3 3 3 4 4 5 5 5 6 5 5 5 5 5 5 6 6 6 6 6 6 6 6 6 6 5 4 5 6 7 7 7 7 7 7
1 0 0 1 2 3 4 5 5 4 3 3 3 4 4 4 5 5 6 6 5 5 5 5 5 6 6 6 6 6 6 6 6 5 5 5 4 4 6 7 7 7 7 7 7
1 1 0 1 1 2 4 5 5 4 2 2 4 4 5 5 5 5 6 6 6 6 6 6 6 6 6 6 6 6 7 7 6 5 4 4 4 4 5 6 6 7 7 7 7
1 1 0 0 1 2 4 4 4 3 2 2 4 5 5 5 5 5 6 6 6 6 6 6 6 7 6 7 7 7 6 5 5 4 4 4 4 4 5 6 6 6 6 7 7
1 1 0 0 1 3 4 4 3 2 2 3 4 4 5 5 5 5 6 6 6 5 5 5 6 6 6 6 6 6 5 3 2 2 3 4 4 4 5 6 6 5 5 6 7
1 1 0 0 2 3 3 3 2 2 2 3 4 4 5 5 5 5 6 6 6 5 5 4 4 5 6 6 6 6 5 3 1 1 2 4 4 4 5 6 6 5 5 6 6
1 1 0 1 2 3 3 2 1 2 2 3 4 4 4 5 5 5 5 6 6 6 5 4 4 5 6 6 6 6 5 4 3 2 2 3 4 4 5 5 5 5 5 5 5
1 1 0 1 2 3 3 2 1 2 3 3 3 3 4 4 5 5 5 5 5 5 5 4 4 5 6 6 6 6 5 5 4 3 2 2 3 4 4 4 4 4 4 4 4
1 1 0 1 2 2 2 1 2 2 3 3 3 3 3 4 4 4 4 5 5 6 5 5 4 4 5 6 6 6 5 5 4 3 2 2 3 3 3 3 3 3 3 3 3
1 1 1 1 2 2 2 2 2 2 2 2 2 3 3 3 3 3 4 5 5 5 5 5 4 3 4 5 6 6 5 5 4 3 2 2 2 3 3 3 3 2 2 2 3
1 1 2 2 2 2 1 2 2 2 2 2 2 3 3 3 3 3 4 4 5 5 5 5 4 3 4 5 5 5 4 4 4 3 3 2 2 3 3 3 2 2 2 2 2
1 2 2 2 2 1 1 1 2 2 1 1 2 2 3 3 3 3 4 4 5 6 6 6 5 4 4 4 4 4 3 3 3 3 3 2 3 3 3 2 2 1 1 2 2
2 2 2 2 2 2 1 1 1 1 1 1 2 2 3 3 3 3 3 4 5 5 6 6 5 5 4 3 3 2 2 2 2 3 3 3 3 3 2 2 1 1 1 1 1
2 2 3 3 3 2 2 2 1 1 1 1 2 2 2 3 3 3 3 4 4 5 6 6 5 4 3 3 2 1 2 2 2 3 3 3 3 3 3 2 1 1 1 1 0
2 2 3 3 3 3 2 2 1 1 1 1 2 2 2 2 3 3 3 4 4 5 6 6 5 3 2 2 2 1 2 2 2 3 4 4 3 3 3 2 1 1 1 1 0